[[{"header":{"parameterUnit":"m.s-1","parameterCategory":1,"la1":30.2991,"la2":30.254,"lo1":-89.0895,"lo2":-89.0444,"dy":0.0017,"dx":0.0017,"nx":28,"ny":28,"refTime":"2023-08-16T03:00:00:Z","depth":0,"parameterNumber":2,"parameterNumberName":"U-component_of_WINDS"},"data":[0,0,0,0,0,0,0,0,0,0,0,0,0,0,0,0,0,0,0,0,0,0,0,0,0,0,0,0,0,0,0,0,0,0,0,0,0,0,0,0,0,0,0,0,0,0,0,0,0,0,0,0,0,0,0,0,0,0,0.0224,0.0222,0,0.0124,0.0123,0.0122,-0.0005,-0.0008,-0.001,-0.0012,-0.0107,-0.0107,-0.0108,0,0,0,0,0,0,0,0,0,0,0,0,0,0.0309,0.0308,0.0224,0.0222,0.0221,0.0124,0.0123,0.0121,-0.0005,-0.0008,-0.001,-0.0012,-0.0107,-0.0107,-0.0108,0,0,0,0,0,0,0,0,0,0,0,0,0,0.0247,0.0308,0.0224,0.0146,0.0138,0.0124,0.0123,0.0121,-0.0005,-0.0008,-0.0011,-0.0014,-0.0106,-0.0107,-0.0108,-0.0052,0,0,-0.0111,-0.0111,0,0,0,0,0,0,0,0,0.0251,0.0244,0.0159,0.0151,0.0143,0.0068,0.0118,0.0063,-0.0004,0.005,-0.0012,-0.0015,-0.0046,-0.0052,-0.0063,-0.0056,-0.006,-0.0111,-0.0112,-0.0112,-0.0112,0,0,0,0,0,0,0,0.0255,0.0248,0.0184,0.0158,0.0148,0.0118,0.0106,0.0107,0.0021,0.0045,0.0035,0.0025,-0.0051,-0.0062,-0.0066,-0.0062,-0.0111,-0.0112,-0.0112,-0.0113,-0.0015,-0.0012,0,0,0,0,0,0,0.027,0.0252,0.0187,0.0181,0.019,0.0119,0.0105,0.0095,0.0021,0.0006,0.0028,0.0019,-0.0059,-0.0065,-0.007,-0.001,-0.0112,-0.0113,-0.0113,-0.0018,-0.0014,-0.0011,0,0,0,0,0,0,0.0273,0.0266,0.0191,0.0214,0.0202,0.012,0.0111,0.0095,0.0083,0.0007,-0.0008,0.0031,-0.0062,-0.0069,-0.0056,-0.0015,-0.0113,-0.0114,-0.0022,-0.0017,-0.0013,0.0112,0,0,0,0,0,0,0.0276,0.0267,0.0287,0.0215,0.0201,0.0206,0.0113,0.0095,0.0081,0.0069,0.0007,-0.0006,-0.0065,-0.0054,-0.0057,-0.0018,-0.0115,-0.0026,-0.002,-0.0014,0.0104,0.012,0.0134,0,0,0,0,0,0.0279,0.0328,0.0289,0.0282,0.0224,0.0209,0.0201,0.0131,0.0085,0.0105,0.0056,-0.0004,-0.002,-0.0052,-0.0056,-0.0017,-0.0029,-0.0021,-0.0015,0.0097,0.0117,0.0134,0,0,0,0,0,0,0.041,0.0317,0.0273,0.03,0.0263,0.0188,0.0211,0.0155,0.0132,0.0123,0.0038,0.0025,0.0049,0.0017,-0.0018,0.0033,-0.0033,-0.0027,0.0053,0.0071,0.0087,0.0095,-0.0116,0,0,0,0,0,0.0442,0.0435,0.0355,0.0387,0.037,0.0294,0.0284,0.0233,0.0193,0.0177,0.0129,0.0094,0.008,0.0074,0.0058,0.0098,0.0082,0.0122,0.0138,0.0151,0.0158,0.0176,0.0193,0.0012,0.0012,0.0012,0,0,0.0508,0.0456,0.0458,0.0412,0.0377,0.0373,0.0282,0.0282,0.0279,0.0178,0.0186,0.015,0.0104,0.0131,0.014,0.0105,0.0204,0.016,0.0171,0.0171,0.0185,0.0202,0.0217,0.0017,0.0016,0.0015,0,0,0.0627,0.0587,0.0608,0.0574,0.0521,0.0469,0.0475,0.0407,0.0378,0.0384,0.0307,0.0303,0.0283,0.0253,0.0236,0.034,0.0284,0.0337,0.0418,0.0436,0.045,0.0462,0.05,0.0514,0.0344,0.0344,0.0344,0,0.0717,0.0706,0.0626,0.063,0.0612,0.0517,0.0538,0.051,0.0456,0.0447,0.0407,0.0378,0.0341,0.0358,0.0383,0.0372,0.0376,0.0345,0.0454,0.0466,0.0476,0.0511,0.0525,0.0351,0.035,0.035,0.0349,0,0.0819,0.0813,0.0836,0.0783,0.0767,0.0781,0.0704,0.0698,0.0647,0.06,0.0607,0.0559,0.0531,0.053,0.0483,0.0541,0.0521,0.0469,0.0402,0.0501,0.0533,0.0545,0.0361,0.0358,0.0356,0.0355,0,0,0.102,0.092,0.093,0.0904,0.0838,0.0832,0.0841,0.081,0.0807,0.0772,0.0778,0.0761,0.0712,0.0692,0.0639,0.0655,0.074,0.0601,0.0599,0.0629,0.0802,0.0842,0.0859,0.0702,0.0704,0.0706,0.0806,0,0.1127,0.1134,0.1061,0.1088,0.1082,0.0989,0.0997,0.0958,0.0913,0.0902,0.0853,0.0843,0.0779,0.0766,0.0777,0.0728,0.0774,0.0719,0.0708,0.0709,0.0723,0.0875,0.0917,0.1014,0.0817,0.0819,0.0821,0,0.1253,0.1222,0.1248,0.1178,0.1173,0.1181,0.1146,0.1136,0.1089,0.1056,0.1032,0.097,0.0975,0.0909,0.0914,0.0878,0.0869,0.0844,0.0846,0.0843,0.0772,0.0878,0.1044,0.1059,0.0839,0.0838,0.0837,0,0.1398,0.1363,0.1373,0.1354,0.1273,0.128,0.1247,0.1197,0.1182,0.1153,0.1142,0.1115,0.11,0.108,0.1013,0.0971,0.1026,0.0955,0.1,0.1002,0.1017,0.1018,0.1186,0.101,0.101,0.101,0.1009,0,0.1526,0.1546,0.1436,0.1444,0.1462,0.1378,0.14,0.1358,0.1314,0.1312,0.1231,0.1231,0.1142,0.1132,0.108,0.1092,0.1086,0.106,0.1046,0.1068,0.1071,0.1062,0.1054,0.1013,0.1012,0.1012,0.1011,0,0.1691,0.1619,0.1624,0.1545,0.1526,0.1544,0.1477,0.148,0.1429,0.1428,0.1423,0.1344,0.1328,0.1258,0.1227,0.1191,0.1222,0.1194,0.1237,0.1228,0.1277,0.1274,0.1446,0.1464,0.1277,0.1279,0.128,0,0.1778,0.179,0.1712,0.1703,0.1672,0.166,0.1644,0.1561,0.1548,0.1494,0.1505,0.1482,0.1459,0.1438,0.138,0.1355,0.1326,0.1388,0.1322,0.1343,0.1327,0.1328,0.1329,0.1403,0.1405,0.1407,0.1409,0,0.194,0.1903,0.1881,0.1847,0.1829,0.1799,0.1764,0.1762,0.167,0.166,0.1641,0.1623,0.1589,0.1568,0.1532,0.15,0.144,0.1429,0.1438,0.1462,0.1486,0.1474,0.1277,0.1426,0.1425,0.1423,0.1422,0.1422,0.2069,0.2075,0.2019,0.1998,0.1962,0.1931,0.193,0.1877,0.1859,0.1823,0.1776,0.1763,0.1715,0.1661,0.1633,0.1623,0.1589,0.1602,0.1606,0.1611,0.1621,0.1487,0.1616,0.1615,0.1615,0.1614,0.1614,0,0.2226,0.2185,0.2166,0.2118,0.2101,0.2042,0.2,0.1991,0.198,0.1938,0.1916,0.1895,0.1873,0.1811,0.1783,0.1787,0.1759,0.1783,0.1782,0.1776,0.1653,0.1648,0.1806,0.1806,0.1806,0.1806,0.1806,0.1806,0.2307,0.2313,0.2269,0.2257,0.2216,0.2201,0.2182,0.2153,0.2119,0.2098,0.2078,0.2036,0.1987,0.1954,0.1932,0.1914,0.1909,0.1942,0.1916,0.1803,0.1784,0.1767,0.1762,0.1941,0.1941,0.2039,0.204,0.204]},{"header":{"parameterUnit":"m.s-1","parameterCategory":1,"la1":30.2991,"la2":30.254,"lo1":-89.0895,"lo2":-89.0444,"dy":0.0017,"dx":0.0017,"nx":28,"ny":28,"refTime":"2023-08-16T03:00:00:Z","depth":0,"parameterNumber":3,"parameterNumberName":"V-component_of_WINDS"},"data":[0,0,0,0,0,0,0,0,0,0,0,0,0,0,0,0,0,0,0,0,0,0,0,0,0,0,0,0,0,0,0,0,0,0,0,0,0,0,0,0,0,0,0,0,0,0,0,0,0,0,0,0,0,0,0,0,0,0,0.3023,0.3022,0,0.2906,0.2905,0.2903,0.2789,0.2788,0.2786,0.2785,0.2663,0.2661,0.266,0,0,0,0,0,0,0,0,0,0,0,0,0,0.3146,0.3144,0.3023,0.3022,0.302,0.2906,0.2905,0.2903,0.279,0.2788,0.2786,0.2784,0.2664,0.2662,0.2659,0,0,0,0,0,0,0,0,0,0,0,0,0,0.3067,0.3144,0.3024,0.295,0.2942,0.2907,0.2905,0.2903,0.279,0.2788,0.2786,0.2784,0.2665,0.2662,0.2659,0.2686,0,0,0.2651,0.2649,0,0,0,0,0,0,0,0,0.3072,0.3063,0.2962,0.2955,0.2946,0.286,0.2903,0.283,0.2791,0.2848,0.2785,0.2782,0.273,0.2722,0.2705,0.268,0.2675,0.265,0.2649,0.2647,0.2647,0,0,0,0,0,0,0,0.3077,0.3067,0.2977,0.2961,0.2951,0.2922,0.2908,0.2889,0.2803,0.2843,0.2834,0.2822,0.2726,0.2708,0.2701,0.2673,0.265,0.2648,0.2646,0.2645,0.2663,0.2665,0,0,0,0,0,0,0.3094,0.3072,0.298,0.2973,0.3005,0.2922,0.2906,0.289,0.2803,0.2787,0.2824,0.2817,0.2714,0.2705,0.2696,0.2721,0.2647,0.2645,0.2643,0.2661,0.2663,0.2666,0,0,0,0,0,0,0.3097,0.3087,0.2985,0.302,0.3005,0.2922,0.2904,0.2889,0.2871,0.2789,0.2772,0.2822,0.2712,0.27,0.2689,0.2716,0.2643,0.2641,0.2658,0.2662,0.2665,0.2773,0,0,0,0,0,0,0.3101,0.3089,0.3099,0.3022,0.3004,0.2981,0.2906,0.2888,0.2867,0.2857,0.2782,0.2768,0.2709,0.2694,0.2686,0.2711,0.2639,0.2656,0.266,0.2664,0.2766,0.2779,0.279,0,0,0,0,0,0.3106,0.3134,0.31,0.309,0.3015,0.2983,0.2973,0.2905,0.2869,0.2878,0.2825,0.277,0.2714,0.2694,0.2684,0.2708,0.2654,0.2659,0.2663,0.2761,0.2777,0.279,0,0,0,0,0,0,0.3217,0.3123,0.3084,0.3088,0.3045,0.2964,0.2973,0.2924,0.2889,0.2881,0.2798,0.2782,0.278,0.2742,0.2722,0.2729,0.2676,0.2679,0.2754,0.2768,0.278,0.2789,0.2636,0,0,0,0,0,0.3242,0.3225,0.3143,0.3154,0.3134,0.3058,0.3041,0.2993,0.2944,0.2925,0.2871,0.2825,0.2797,0.278,0.2749,0.276,0.2742,0.2771,0.2783,0.2793,0.2798,0.2799,0.2812,0.2682,0.2682,0.2682,0,0,0.3293,0.324,0.3234,0.3175,0.3135,0.3119,0.3043,0.3029,0.3015,0.2922,0.2909,0.2868,0.281,0.281,0.2808,0.2779,0.2829,0.28,0.2809,0.2807,0.2806,0.2818,0.2829,0.2685,0.2685,0.2684,0,0,0.3378,0.3336,0.3341,0.3302,0.3244,0.3192,0.3194,0.312,0.3089,0.3074,0.3004,0.2986,0.2939,0.2901,0.2876,0.2945,0.2893,0.2937,0.3,0.3003,0.3013,0.3022,0.3046,0.3056,0.2941,0.2942,0.2942,0,0.3449,0.3422,0.3349,0.3339,0.3314,0.323,0.3233,0.3199,0.3134,0.3118,0.3087,0.3026,0.2982,0.2971,0.2988,0.297,0.2968,0.2946,0.3018,0.3026,0.3032,0.3055,0.3064,0.2947,0.2947,0.2946,0.2946,0,0.3512,0.3494,0.3504,0.3444,0.342,0.3417,0.3342,0.3327,0.328,0.3232,0.3217,0.3161,0.3117,0.3111,0.3065,0.3093,0.3077,0.3033,0.2979,0.3052,0.3072,0.308,0.2956,0.2954,0.2952,0.295,0,0,0.3665,0.3563,0.3568,0.3539,0.3467,0.3451,0.3443,0.3401,0.3389,0.3346,0.3337,0.3299,0.3257,0.3228,0.3177,0.318,0.3237,0.3134,0.3132,0.3156,0.3265,0.33,0.3311,0.3202,0.3203,0.3204,0.327,0,0.3738,0.372,0.3653,0.3655,0.3637,0.3555,0.3548,0.3503,0.3457,0.3434,0.3383,0.3357,0.3304,0.3286,0.3285,0.3231,0.3258,0.3225,0.3192,0.3192,0.321,0.3321,0.3357,0.3422,0.3277,0.3278,0.3279,0,0.3821,0.3784,0.3784,0.3712,0.3702,0.3697,0.3652,0.3631,0.3578,0.3544,0.3512,0.3454,0.344,0.3389,0.3368,0.3347,0.3329,0.33,0.3301,0.3296,0.3241,0.332,0.3441,0.3451,0.3291,0.329,0.3289,0,0.3933,0.3883,0.3876,0.3853,0.3769,0.3767,0.3732,0.3676,0.3654,0.3615,0.36,0.3559,0.3537,0.3506,0.3438,0.3407,0.3425,0.3368,0.3396,0.3398,0.3405,0.3405,0.3526,0.3392,0.3392,0.3392,0.3392,0,0.4022,0.4026,0.3925,0.3921,0.3922,0.3844,0.3847,0.3803,0.3754,0.3739,0.3665,0.3653,0.3564,0.3541,0.3488,0.3479,0.3469,0.3441,0.3427,0.3448,0.3452,0.3436,0.343,0.3395,0.3394,0.3394,0.3393,0,0.4148,0.4081,0.4068,0.3989,0.3969,0.3973,0.3905,0.3897,0.3846,0.3829,0.382,0.374,0.3709,0.3639,0.3589,0.3553,0.3557,0.3531,0.3576,0.3567,0.3599,0.3598,0.3714,0.3726,0.3585,0.3587,0.3588,0,0.421,0.421,0.4131,0.4116,0.4084,0.4061,0.4039,0.3962,0.3941,0.3879,0.3879,0.3842,0.3809,0.3763,0.37,0.3661,0.3634,0.3678,0.3628,0.3649,0.3635,0.3636,0.3636,0.3689,0.3691,0.3693,0.3694,0,0.4327,0.4293,0.4264,0.4223,0.4199,0.4163,0.4122,0.4114,0.4027,0.4007,0.3975,0.3949,0.3898,0.3862,0.3814,0.3776,0.3721,0.371,0.3714,0.3737,0.3763,0.3749,0.3607,0.3708,0.3707,0.3706,0.3705,0.3704,0.4422,0.4419,0.4363,0.4332,0.4294,0.4258,0.4247,0.4194,0.4166,0.4119,0.4075,0.4047,0.3991,0.392,0.3886,0.3862,0.3834,0.3841,0.3842,0.3846,0.3855,0.3766,0.3853,0.3852,0.3852,0.3851,0.3851,0,0.4536,0.4495,0.4468,0.4414,0.439,0.434,0.4292,0.4276,0.4252,0.4205,0.4174,0.4136,0.4101,0.4035,0.3994,0.3987,0.3961,0.3979,0.3979,0.3971,0.3882,0.3883,0.4001,0.4001,0.4001,0.4001,0.4001,0.4001,0.4592,0.4583,0.4543,0.4514,0.4472,0.4445,0.4422,0.4388,0.435,0.4312,0.4283,0.424,0.4185,0.4139,0.4104,0.4085,0.4073,0.41,0.4074,0.3992,0.3978,0.3964,0.3964,0.4098,0.4098,0.4164,0.4165,0.4166]}]]